This is the latest recevied weather packets stored in our database for station/object IZ3VCM. If no packets are shown the sender has not sent any weather packets the latest 10 day(s).
| Time | Temp. | Humidity | Pressure | Rain* | Wind** | Luminosity | Snow |
|---|---|---|---|---|---|---|---|
| 1777899605 | 28.33° C | 34% | 1015.6 hPa | 0 mm | - | - | - |
| 1777898704 | 29.44° C | 33% | 1015.8 hPa | 0 mm | - | - | - |
| 1777897805 | 28.33° C | 34% | 1015.9 hPa | 0 mm | - | - | - |
| 1777896903 | 28.33° C | 36% | 1016.1 hPa | 0 mm | - | - | - |
| 1777896006 | 28.89° C | 37% | 1016.1 hPa | 0 mm | - | - | - |
| 1777895104 | 28.33° C | 39% | 1016.1 hPa | 0 mm | - | - | - |
| 1777894205 | 28.33° C | 42% | 1016.4 hPa | 0 mm | - | - | - |
| 1777893303 | 26.67° C | 40% | 1016.5 hPa | 0 mm | - | - | - |
| 1777892405 | 27.22° C | 40% | 1016.5 hPa | 0 mm | - | - | - |
| 1777891504 | 27.22° C | 40% | 1016.6 hPa | 0 mm | - | - | - |
| 1777890606 | 27.22° C | 43% | 1016.7 hPa | 0 mm | - | - | - |
| 1777889703 | 27.22° C | 47% | 1017 hPa | 0 mm | - | - | - |
| 1777888806 | 25.56° C | 44% | 1017.1 hPa | 0 mm | - | - | - |
| 1777887903 | 25.56° C | 46% | 1017.2 hPa | 0 mm | - | - | - |
| 1777887005 | 25.56° C | 45% | 1017.1 hPa | 0 mm | - | - | - |
| 1777886104 | 25° C | 51% | 1017.3 hPa | 0 mm | - | - | - |
| 1777885205 | 25° C | 52% | 1017.2 hPa | 0 mm | - | - | - |
| 1777884303 | 25° C | 53% | 1017.2 hPa | 0 mm | - | - | - |
| 1777883405 | 25° C | 56% | 1017.3 hPa | 0 mm | - | - | - |
| 1777882503 | 23.33° C | 58% | 1017.2 hPa | 0 mm | - | - | - |
| 1777881606 | 23.33° C | 60% | 1017.2 hPa | 0 mm | - | - | - |
| 1777880703 | 22.22° C | 63% | 1017.1 hPa | 0 mm | - | - | - |
| 1777879806 | 20.56° C | 66% | 1017.2 hPa | 0 mm | - | - | - |
| 1777878904 | 20.56° C | 67% | 1017.1 hPa | 0 mm | - | - | - |
| 1777878006 | 20° C | 72% | 1017.1 hPa | 0 mm | - | - | - |
* Rain latest hour (hover to see other rain measurements)
** Current wind speed in m/s (hover to see current wind gust speed)